Terminal Aerodrome Forecast
Issued by NWS

Home | Current Version | Previous Version | Text Only | Print | Product List | Glossary On
Versions: 1 2 3 4 5 6 7 8 9 10 11 12 13 14 15 16 17 18 19 20 21 22 23 24 25 26 27 28 29 30 31 32 33 34 35 36 37 38 39 40 41 42 43 44 45 46 47 48 49 50
000
FTUS42 KMFL 302109 AAC
TAFFXE
TAF AMD
KFXE 302109Z 3021/3118 17012KT P6SM VCSH SCT050 OVC080
     FM310000 15009KT P6SM VCSH SCT030 OVC100
      TEMPO 3100/3104 SHRA
     FM311200 16007KT P6SM VCSH SCT030 OVC250=

USA.gov is the U.S. government's official web portal to all federal, state and local government web resources and services.